Regional Weather Roundup
Issued by NWS Charleston, SC

Home | Current Version | Previous Version | Text Only | Print | Product List | Glossary On
Versions: 1 2 3 4 5 6 7 8 9 10 11 12 13 14 15 16 17 18 19 20 21 22 23 24 25 26 27 28 29 30 31 32 33 34 35 36 37 38 39 40 41 42 43 44 45 46 47 48 49 50
000
ASUS42 KCHS 180912
RWRCHS

Regional Weather Roundup
National Weather Service Charleston SC
400 AM EST MON DEC 18 2017

NOTE: "fair" indicates few or no clouds below 12,000 feet with no
significant weather and/or obstructions to visibility.

Not all stations are quality controlled. Use data with caution,
especially dewpoint observations.

SCZ027-030-031-034>040-042>050-181000-
...Southeast South Carolina...

CITY           SKY/WX    TMP DP  RH WIND       PRES   REMARKS
N Charleston   CLOUDY    60  56  86 SW10      30.17F
Waterfront Prk   N/A     58  56  92 CALM      30.03S
Mount Pleasant CLOUDY    61  57  88 SW6       30.18S
Johns Island   CLOUDY    63  59  88 SW6       30.18F
Pinopolis        N/A     54  52  94 N7        30.09R
Moncks Corner  FAIR      57  54  88 CALM      30.17S
Summerville    CLOUDY    59  55  88 SW5       30.18S
Beaufort MCAS  CLOUDY    56  54  93 S5        30.19S
Beaufort Arpt  CLOUDY    55  52  88 CALM      30.18F
Hilton Head Is CLOUDY    61  59  94 SW6       30.19F
Walterboro     CLOUDY    59  54  82 SW3       30.19S
Allendale      CLOUDY    57  54  88 CALM      30.16F

...Southern Midlands and Pee Dee...

CITY           SKY/WX    TMP DP  RH WIND       PRES   REMARKS
Georgetown     CLOUDY    54  52  94 CALM      30.18F
Kingstree      CLOUDY    52  50  93 CALM      30.17F
Orangeburg     CLOUDY    54  47  77 S5        30.16F
Barnwell         N/A     59  52  77 CALM      30.16F
Aiken          CLOUDY    50  41  71 CALM      30.19F
Manning        CLOUDY    52  36  54 MISG      30.17S
Columbia       CLOUDY    53  41  63 NW3       30.16F
Sumter         CLOUDY    52  39  61 CALM      30.14F
Florence       CLOUDY    53  42  66 CALM      30.17S
Myrtle Beach   CLOUDY    55  52  89 S6        30.18F
N Myrtle Beach LGT RAIN  55  51  86 CALM      30.16F

$$

GAZ063-065-086>088-099>101-113>116-118-119-134>141-150-181000-
...Southeast Georgia...

CITY           SKY/WX    TMP DP  RH WIND       PRES   REMARKS
Savannah Arpt  CLOUDY    55  52  89 CALM      30.19S
Hunter AAF     CLOUDY    54  52  92 CALM        N/A
Fort Stewart   CLOUDY    51  49  90 CALM        N/A
Statesboro     CLOUDY    57  51  80 CALM      30.17F
Sylvania       LGT RAIN  56  53  89 CALM      30.18F
Claxton        CLOUDY    55  52  89 CALM      30.18S

...CSRA, Central and far Southeast Georgia...

CITY           SKY/WX    TMP DP  RH WIND       PRES   REMARKS
Thomson        CLOUDY    49  44  81 NE3       30.22F
Augusta-Bush   CLOUDY    55  43  63 CALM      30.16S
Augusta-Daniel CLOUDY    54  41  61 NW3       30.17S
Swainsboro     CLOUDY    59  59 100 CALM      30.17F
Vidalia        CLOUDY    57  55  94 CALM      30.17S
Eastman        CLOUDY    60  52  75 CALM      30.18F
Hazlehurst     FAIR      61  59  93 CALM      30.14F
Alma           CLOUDY    56  55  97 CALM      30.14F FOG
Waycross       MOCLDY    55  52  90 CALM      30.16F
Jesup          NOT AVBL
Baxley         FAIR      54  54 100 CALM      30.15F FOG
Brunswick      FOG       54  52  94 CALM      30.19F VSB 1/2
Saint Simons   PTCLDY    57  56  96 CALM      30.18F

$$

SCZ027-028-034-036>038-045-046-048>050-GAZ119-141-181000-
...Lake and Supplemental Coastal Observations...

STATION/POSITION TIME  TEMP    WIND        PRES    WAVE   SWELL
                       AIR SEA DIR/SP/G            HT/PER HT/PER/DIR
                 (UTC) (F)     (DEG/KT/KT) (MB)    (FT/S) (FT/S/D)
Winyah Bay       NOT AVBL
Lake Murray      0820   51      CALM  /  1 1021.0
ACE Basin NERRS  0745   53        CALM     1022.0
Fort Pulaski     0848   58 53  200/  3/  5 1022.3F
Sapelo Island    0800   57     200/  3     1022.0

$$

ANZ835-935-AMZ111-154-330-350-352-354-370-450-454-472-181000-
...C-MAN and Buoy Observations...

STATION/POSITION TIME  TEMP    WIND        PRES    WAVE   SWELL
                       AIR SEA DIR/SP/G            HT/PER HT/PER/DIR
                 (UTC) (F)     (DEG/KT/KT) (MB)    (FT/S) (FT/S/D)
Buoy 41004       0850   71 73  230/ 14/ 17 1021.4F   2/ 4   2/140/10
Buoy 41008       0850   60 59  210/  4/  4 1022.2F   1/ 9   2/120/ 9
Folly Beach CMAN 0800   56     190/  2/  2 1022.5S
Capers Nearshore 0808   53 55  160/  2/  2 1021.7F


STATION/POSITION TIME  TEMP    WIND        PRES    WAVE   SWELL
                       AIR SEA DIR/SP/G            HT/PER HT/PER/DIR
                 (UTC) (F)     (DEG/KT/KT) (MB)    (FT/S) (FT/S/D)
5E St. Marys GA  0830      61                N/A     2/ 9
Frying Pan Buoy  0850   62 67   20/  4/  6 1021.5F   2/ 9   2/110/ 9
Buoy 41025       0850   58 72  280/ 12/ 16 1022.0F   2/10   2/130/10
Cape Lookout NC  0800          210/  2/  2 1022.3F
Buoy 41002       0850   70 74  230/  8/ 12 1023.1F   2/ 9   2/ 90/ 9
Buoy 41010       NOT AVBL
St Augustine FL  0900   65 65  200/  6/  7 1022.1F


$$




USA.gov is the U.S. government's official web portal to all federal, state and local government web resources and services.